Terminal Aerodrome Forecast
Issued by NWS El Paso, TX

Home | Current Version | Previous Version | Text Only | Print | Product List | Glossary On
Versions: 1 2 3 4 5 6 7 8 9 10 11 12 13 14 15
000
FTUS44 KEPZ 280736 AAA
TAFELP
TAF AMD
KELP 280736Z 2808/2906 22012KT P6SM SCT090 BKN150
      TEMPO 2808/2810 19021G32KT
     FM281800 19005KT P6SM BKN250
     FM290000 13009KT P6SM VCTS BKN050CB BKN250=

USA.gov is the U.S. government's official web portal to all federal, state and local government web resources and services.